Volver al catálogo

FENGYUN 1C DEB

ActivoPO
NORAD 30845·DEBRIS·🇨🇳 China

Lanzado May 10, 1999 desde Taiyuan Satellite Launch Center

Loading…

Próximos Pases (próximas 24 horas)

TLE

ActualizadoSource: Space-Track

Época: Sep 13, 2026, 10:00 UTC

1 30845U 99025AWF 26256.41677514  .00000146  00000-0  16289-3 0  9991
2 30845  98.4012 229.9360 0191451 246.5911 267.6191 13.77043906980230

Sigue FENGYUN 1C DEB en tiempo real con AllMySat

Download on the App Store